• In Netherlands
  • List of Countries
  • For 7 days
  • Water Temperature
  • Satellite Maps
  • Weather Map
  • Weather Widgets
  • user-avatar
    Login

    Hourly Weather Linz

    Today, 24 February, Friday

    Time Temperature Precipitation Wind Pressure Humidity
    00:00 +6°C° 0.1 mm 5 mps 722 mmHg 88%
    01:00 +6°C° 0.1 mm 5 mps 722 mmHg 88%
    02:00 +6°C° 0.5 mm 5 mps 723 mmHg 88%
    03:00 +4°C° 0.5 mm 6 mps 723 mmHg 88%
    04:00 +4°C° 0.5 mm 6 mps 723 mmHg 88%
    05:00 +4°C° 0.7 mm 6 mps 724 mmHg 88%
    06:00 +3°C° 0.7 mm 6 mps 724 mmHg 88%
    07:00 +3°C° 0.7 mm 7 mps 725 mmHg 88%
    08:00 +3°C° 0.2 mm 7 mps 725 mmHg 86%
    09:00 +3°C° 0.2 mm 7 mps 726 mmHg 85%
    10:00 +2°C° 0.2 mm 8 mps 727 mmHg 83%
    11:00 +3°C° 0.1 mm 7 mps 727 mmHg 81%
    12:00 +3°C° 0.1 mm 7 mps 727 mmHg 79%
    13:00 +3°C° 0.1 mm 7 mps 728 mmHg 77%
    14:00 +3°C° 0.1 mm 6 mps 728 mmHg 77%
    15:00 +3°C° 0.1 mm 6 mps 728 mmHg 77%
    16:00 +3°C° 0.1 mm 6 mps 729 mmHg 77%
    17:00 +2°C° 0.1 mm 5 mps 729 mmHg 81%
    18:00 +1°C° 0.1 mm 4 mps 730 mmHg 84%
    19:00 +1°C° 0.1 mm 3 mps 731 mmHg 88%
    20:00 +1°C° 0 mm 3 mps 732 mmHg 89%
    21:00 +1°C° 0 mm 2 mps 732 mmHg 91%
    22:00 +1°C° 0 mm 2 mps 733 mmHg 92%
    23:00 -1°C° 0 mm 2 mps 734 mmHg 93%

    Tomorrow, 25 February, Saturday

    Time Temperature Precipitation Wind Pressure Humidity
    00:00 -1°C° 0 mm 2 mps 734 mmHg 94%
    01:00 -1°C° 0 mm 2 mps 734 mmHg 94%
    02:00 -1°C° 0 mm 2 mps 735 mmHg 95%
    03:00 -1°C° 0 mm 2 mps 735 mmHg 95%
    04:00 -1°C° 0 mm 2 mps 735 mmHg 95%
    05:00 -1°C° 0 mm 2 mps 736 mmHg 95%
    06:00 -1°C° 0 mm 2 mps 736 mmHg 95%
    07:00 -2°C° 0 mm 2 mps 737 mmHg 95%
    08:00 +1°C° 0 mm 2 mps 737 mmHg 88%
    09:00 +1°C° 0 mm 3 mps 738 mmHg 80%
    10:00 +3°C° 0 mm 3 mps 738 mmHg 73%
    11:00 +3°C° 0 mm 3 mps 738 mmHg 69%
    12:00 +4°C° 0 mm 3 mps 738 mmHg 66%
    13:00 +5°C° 0 mm 3 mps 738 mmHg 63%
    14:00 +6°C° 0 mm 2 mps 737 mmHg 64%
    15:00 +6°C° 0 mm 2 mps 737 mmHg 65%
    16:00 +7°C° 0 mm 1 mps 737 mmHg 66%
    17:00 +5°C° 0 mm 1 mps 737 mmHg 72%
    18:00 +3°C° 0 mm 1 mps 737 mmHg 79%
    19:00 +2°C° 0 mm 1 mps 737 mmHg 86%
    20:00 +2°C° 0 mm 1 mps 738 mmHg 86%
    21:00 +1°C° 0 mm 1 mps 738 mmHg 86%
    22:00 -1°C° 0 mm 2 mps 738 mmHg 85%
    23:00 +1°C° 0 mm 1 mps 737 mmHg 84%

    Day after tomorrow, 26 February, Sunday

    Time Temperature Precipitation Wind Pressure Humidity
    00:00 +1°C° 0 mm 1 mps 737 mmHg 83%
    01:00 +1°C° 0 mm 1 mps 737 mmHg 82%
    02:00 +1°C° 0 mm 1 mps 736 mmHg 80%
    03:00 +1°C° 0 mm 1 mps 736 mmHg 79%
    04:00 +1°C° 0 mm 1 mps 736 mmHg 78%
    05:00 +1°C° 0 mm 1 mps 735 mmHg 77%
    06:00 +1°C° 0 mm 1 mps 735 mmHg 76%
    07:00 +1°C° 0 mm 1 mps 735 mmHg 75%
    08:00 +3°C° 0 mm 1 mps 735 mmHg 68%
    09:00 +5°C° 0 mm 1 mps 735 mmHg 62%
    10:00 +7°C° 0 mm 1 mps 735 mmHg 55%
    11:00 +8°C° 0 mm 1 mps 735 mmHg 55%
    12:00 +9°C° 0 mm 1 mps 734 mmHg 54%
    13:00 +10°C° 0 mm 1 mps 734 mmHg 53%
    14:00 +9°C° 0 mm 1 mps 734 mmHg 59%
    15:00 +8°C° 0 mm 1 mps 733 mmHg 66%
    16:00 +8°C° 0 mm 1 mps 733 mmHg 73%
    17:00 +7°C° 0 mm 1 mps 733 mmHg 75%
    18:00 +5°C° 0 mm 1 mps 733 mmHg 77%
    19:00 +4°C° 0 mm 1 mps 733 mmHg 80%
    20:00 +4°C° 0 mm 1 mps 733 mmHg 80%
    21:00 +4°C° 0 mm 1 mps 733 mmHg 80%
    22:00 +3°C° 0 mm 1 mps 732 mmHg 79%
    23:00 +3°C° 0 mm 1 mps 732 mmHg 79%

    27 February, Monday

    Time Temperature Precipitation Wind Pressure Humidity
    00:00 +3°C° 0 mm 1 mps 732 mmHg 78%
    01:00 +3°C° 0 mm 1 mps 732 mmHg 77%
    02:00 +2°C° 0 mm 1 mps 732 mmHg 77%
    03:00 +2°C° 0 mm 1 mps 731 mmHg 77%
    04:00 +2°C° 0 mm 1 mps 731 mmHg 77%
    05:00 +2°C° 0 mm 1 mps 731 mmHg 77%
    06:00 +3°C° 0 mm 1 mps 731 mmHg 77%
    07:00 +3°C° 0 mm 1 mps 731 mmHg 76%
    08:00 +5°C° 0 mm 1 mps 731 mmHg 71%
    09:00 +8°C° 0 mm 1 mps 730 mmHg 65%
    10:00 +10°C° 0 mm 1 mps 730 mmHg 60%
    11:00 +11°C° 0 mm 1 mps 729 mmHg 58%
    12:00 +12°C° 0 mm 1 mps 729 mmHg 56%
    13:00 +13°C° 0 mm 1 mps 728 mmHg 54%
    14:00 +13°C° 0 mm 1 mps 727 mmHg 60%
    15:00 +12°C° 0 mm 1 mps 726 mmHg 66%
    16:00 +12°C° 0 mm 1 mps 726 mmHg 72%
    17:00 +9°C° 0 mm 1 mps 726 mmHg 77%
    18:00 +7°C° 0 mm 1 mps 725 mmHg 82%
    19:00 +5°C° 0 mm 1 mps 725 mmHg 86%
    20:00 +5°C° 0 mm 1 mps 725 mmHg 87%
    21:00 +4°C° 0 mm 2 mps 724 mmHg 88%
    22:00 +4°C° 0 mm 2 mps 724 mmHg 88%
    23:00 +3°C° 0 mm 2 mps 724 mmHg 89%

    28 February, Tuesday

    Time Temperature Precipitation Wind Pressure Humidity
    00:00 +3°C° 0 mm 2 mps 724 mmHg 90%
    01:00 +3°C° 0 mm 2 mps 723 mmHg 91%
    02:00 +3°C° 0.1 mm 2 mps 724 mmHg 91%
    03:00 +3°C° 0.1 mm 2 mps 724 mmHg 91%
    04:00 +3°C° 0.1 mm 2 mps 724 mmHg 92%
    05:00 +3°C° 0.4 mm 2 mps 724 mmHg 92%
    06:00 +4°C° 0.4 mm 2 mps 725 mmHg 93%
    07:00 +4°C° 0.4 mm 2 mps 725 mmHg 94%
    08:00 +4°C° 0.3 mm 3 mps 725 mmHg 91%
    09:00 +4°C° 0.3 mm 3 mps 725 mmHg 87%
    10:00 +5°C° 0.3 mm 3 mps 725 mmHg 84%
    11:00 +7°C° 0.1 mm 3 mps 724 mmHg 81%
    12:00 +8°C° 0.1 mm 3 mps 723 mmHg 78%
    13:00 +8°C° 0.1 mm 3 mps 722 mmHg 75%
    14:00 +8°C° 0.1 mm 3 mps 721 mmHg 77%
    15:00 +8°C° 0.1 mm 2 mps 721 mmHg 79%
    16:00 +8°C° 0.1 mm 2 mps 720 mmHg 82%
    17:00 +7°C° 0.1 mm 2 mps 720 mmHg 85%
    18:00 +5°C° 0.1 mm 3 mps 719 mmHg 89%
    19:00 +4°C° 0.1 mm 3 mps 719 mmHg 93%
    20:00 +4°C° 1.4 mm 4 mps 720 mmHg 93%
    21:00 +3°C° 1.4 mm 5 mps 721 mmHg 93%
    22:00 +2°C° 1.4 mm 6 mps 723 mmHg 93%
    23:00 +2°C° 0.4 mm 5 mps 724 mmHg 92%

    1 March, Wednesday

    Time Temperature Precipitation Wind Pressure Humidity
    00:00 +1°C° 0.4 mm 5 mps 724 mmHg 92%
    01:00 +1°C° 0.4 mm 5 mps 725 mmHg 92%
    02:00 0°C° 0 mm 5 mps 726 mmHg 92%
    03:00 0°C° 0 mm 5 mps 726 mmHg 92%
    04:00 -1°C° 0 mm 5 mps 727 mmHg 92%
    05:00 -1°C° 0 mm 5 mps 727 mmHg 92%
    06:00 -1°C° 0 mm 4 mps 728 mmHg 93%
    07:00 -2°C° 0 mm 4 mps 728 mmHg 93%
    08:00 0°C° 0 mm 4 mps 729 mmHg 88%
    09:00 +1°C° 0 mm 5 mps 729 mmHg 84%
    10:00 +3°C° 0 mm 5 mps 730 mmHg 79%
    11:00 +3°C° 0 mm 5 mps 730 mmHg 78%
    12:00 +5°C° 0 mm 5 mps 730 mmHg 78%
    13:00 +5°C° 0 mm 5 mps 730 mmHg 77%
    14:00 +5°C° 0 mm 5 mps 731 mmHg 80%
    15:00 +5°C° 0 mm 4 mps 731 mmHg 83%
    16:00 +5°C° 0 mm 4 mps 731 mmHg 85%
    17:00 +5°C° 0 mm 3 mps 732 mmHg 88%
    18:00 +4°C° 0 mm 3 mps 732 mmHg 90%
    19:00 +4°C° 0 mm 3 mps 732 mmHg 92%
    20:00 +4°C° 0 mm 3 mps 732 mmHg 92%
    21:00 +4°C° 0 mm 3 mps 732 mmHg 92%
    22:00 +4°C° 0 mm 3 mps 732 mmHg 92%
    23:00 +4°C° 0 mm 3 mps 732 mmHg 92%
    Show more